Tracking 23731 objects as of 26-Sep-2021
HD Live streaming from Space Station
objects crossing your sky now

STARLINK-2528

Track STARLINK-2528 now!
10-day predictions
STARLINK-2528 is classified as:


NORAD ID: 48307
Int'l Code: 2021-036AH
Perigee: 552.9 km
Apogee: 555.8 km
Inclination: 53.1 °
Period: 95.6 minutes
Semi major axis: 6925 km
RCS: Unknown
Launch date: April 29, 2021
Source: United States (US)
Launch site: AIR FORCE EASTERN TEST RANGE (AFETR)
aabbcc
Your satellite tracking list
Your tracking list is empty




NASA's NSSDC Master Catalog

Two Line Element Set (TLE):
1 48307U 21036AH  21269.07255771  .00000554  00000-0  56096-4 0  9992
2 48307  53.0541 189.2859 0002128  53.9579 306.1606 15.06399145 23746
Source of the keplerian elements: AFSPC